Change the Weather History Date:

Tuesday, October 15, 2013

  Actual Average Record
Temperature  
Mean Temperature 84 °F -  
Max Temperature 92 °F 89 °F - ()
Min Temperature 75 °F 74 °F - ()
Cooling Degree Days 18    
Growing Degree Days 34 (Base 50)    
Moisture  
Dew Point 76 °F    
Average Humidity 78    
Maximum Humidity 94    
Minimum Humidity 62    
Precipitation  
Precipitation 0.00 in 0.17 in - ()
Sea Level Pressure  
Sea Level Pressure 29.90 in    
Wind  
Wind Speed 1 mph ()    
Max Wind Speed 5 mph    
Max Gust Speed -    
Visibility 6.1 miles    
Events      
T = Trace of Precipitation, MM = Missing Value Source: Averaged Metar Reports

Daily Weather History Graph

Daily Weather History Graph

Search for Another Location

Airport or City:

Trip Planner

Search our weather history database for the weather conditions in past years. The results will help you decide how hot, cold, wet, or windy it might be!

Date:

Astronomy

Oct. 15, 2013 Rise Set
Actual Time 5:38 AM PHT 5:36 PM PHT
Civil Twilight 5:17 AM PHT 5:57 PM PHT
Nautical Twilight 4:52 AM PHT 6:22 PM PHT
Astronomical Twilight 4:28 AM PHT 6:46 PM PHT
Moon 2:41 PM PHT (10/15) 2:08 AM PHT (10/15)
Length of Visible Light 12h 40m
Length of Day
11h 58m
Waxing Gibbous, 83% of the Moon is Illuminated
Oct 15
Waxing Gibbous
Oct 19
Full
Oct 27
Last Quarter
Nov 3
New
Nov 10
First Quarter

Hourly Weather History & Observations

Time (PHT) Temp. Heat Index Dew Point Humidity Pressure Visibility Wind Dir Wind Speed Gust Speed Precip Events Conditions
2:00 AM 75 °F - 72 °F 89% 29.86 in 6 mi Calm Calm - -   Haze
2:00 AM 75.2 °F - 71.6 °F 89% 29.89 in 6.2 mi Calm Calm - N/A   Mostly Cloudy
5:00 AM 75.2 °F - 73.4 °F 94% 29.89 in 6.2 mi Calm Calm - N/A   Partly Cloudy
6:00 AM 75.2 °F - 73.4 °F 94% 29.92 in 6.2 mi Calm Calm - N/A   Overcast
7:00 AM 77.0 °F - 73.4 °F 89% 29.95 in 6.2 mi WSW 2.3 mph - N/A   Overcast
8:00 AM 79 °F - 75 °F 85% 29.90 in 6 mi NNE 2.2 mph - -   Haze
8:00 AM 78.8 °F - 75.2 °F 89% 29.95 in 6.2 mi NNE 2.3 mph - N/A   Mostly Cloudy
9:00 AM 82.4 °F 90.9 °F 77.0 °F 84% 29.95 in 6.2 mi NNE 4.6 mph - N/A   Mostly Cloudy
10:00 AM 86.0 °F 96.9 °F 77.0 °F 74% 29.95 in 6.2 mi Calm Calm - N/A   Mostly Cloudy
11:00 AM 88 °F - 77 °F 62% 29.90 in 7 mi ESE 2.2 mph - -   Haze
11:00 AM 87.8 °F 99.7 °F 77.0 °F 70% 29.92 in 6.2 mi ESE 2.3 mph - N/A   Mostly Cloudy
12:00 PM 86.0 °F 95.1 °F 75.2 °F 70% 29.92 in 6.2 mi Calm Calm - N/A   Mostly Cloudy
1:00 PM 89.6 °F 99.8 °F 75.2 °F 62% 29.89 in 6.2 mi Calm Calm - N/A   Mostly Cloudy
2:00 PM 90 °F - 79 °F 63% 29.83 in 6 mi SSE 2.2 mph - -   Haze
2:00 PM 89.6 °F 104.7 °F 78.8 °F 70% 29.86 in 6.2 mi SSE 2.3 mph - N/A   Mostly Cloudy
3:00 PM 89.6 °F 104.7 °F 78.8 °F 70% 29.86 in 6.2 mi SSE 2.3 mph - N/A   Mostly Cloudy
4:00 PM 87.8 °F 99.7 °F 77.0 °F 70% 29.86 in 6.2 mi South 2.3 mph - N/A   Mostly Cloudy
5:00 PM 85 °F - 77 °F 72% 29.86 in 6 mi Calm Calm - -   Haze
5:00 PM 86.0 °F 96.9 °F 77.0 °F 74% 29.89 in 6.2 mi Calm Calm - N/A   Mostly Cloudy
6:00 PM 84.2 °F 94.1 °F 77.0 °F 79% 29.89 in 5.6 mi ENE 2.3 mph - N/A   Overcast
8:00 PM 82 °F - 77 °F 80% 29.92 in 6 mi ENE 2.2 mph - -   Haze
8:00 PM 82.4 °F 90.9 °F 77.0 °F 84% 29.92 in 5.6 mi ENE 2.3 mph - N/A   Overcast
11:00 PM 81 °F - 75 °F 78% 29.93 in 6 mi Calm Calm - -   Haze
11:00 PM 80.6 °F 86.2 °F 75.2 °F 84% 29.95 in 6.2 mi Calm Calm - N/A   Overcast